LPE2375 SPJC-SCFA

Flight info

Callsign LPE2375
Flight time 1h 59m
Altitude 37000
Route SCO UL550 XONOG UQ803 ENLUS ENLUS5A
Aircraft A319/M-SDE3FGHIRWY/LB1

Departure

Time 2026-04-26 04:16
Airport Jorge Chávez International Airport (SPJC)

Arrival

Time 2026-04-26 06:16
Airport Andrés Sabella Gálvez International Airport (SCFA)
Time Latitude Longitude Altitude Speed Heading
2026-04-26 04:01 -12.03327 -77.11813 76 ft 0 kts 334°
2026-04-26 04:03 -12.03326 -77.11813 76 ft 0 kts 334°
2026-04-26 04:03 -12.03324 -77.11814 76 ft 1 kts 334°
2026-04-26 04:03 -12.03313 -77.11820 67 ft 3 kts 334°
2026-04-26 04:03 -12.03282 -77.11836 72 ft 8 kts 333°
2026-04-26 04:04 -12.03214 -77.11869 72 ft 12 kts 334°
2026-04-26 04:04 -12.03142 -77.11904 76 ft 10 kts 334°
2026-04-26 04:04 -12.03083 -77.11933 72 ft 9 kts 334°
2026-04-26 04:04 -12.03033 -77.11958 74 ft 7 kts 334°
2026-04-26 04:05 -12.02990 -77.11980 74 ft 7 kts 334°
2026-04-26 04:05 -12.02944 -77.12002 71 ft 8 kts 335°
2026-04-26 04:05 -12.02889 -77.12029 72 ft 10 kts 333°
2026-04-26 04:05 -12.02823 -77.12061 71 ft 11 kts 334°
2026-04-26 04:06 -12.02771 -77.12087 71 ft 14 kts 334°
2026-04-26 04:06 -12.02674 -77.12134 65 ft 17 kts 334°
2026-04-26 04:06 -12.02570 -77.12186 60 ft 16 kts 334°
2026-04-26 04:06 -12.02470 -77.12235 63 ft 18 kts 334°
2026-04-26 04:07 -12.02352 -77.12293 57 ft 20 kts 334°
2026-04-26 04:07 -12.02230 -77.12352 53 ft 16 kts 334°
2026-04-26 04:07 -12.02135 -77.12399 50 ft 12 kts 334°
2026-04-26 04:07 -12.02128 -77.12453 48 ft 10 kts 248°
2026-04-26 04:08 -12.02084 -77.12502 45 ft 10 kts 335°
2026-04-26 04:08 -12.02015 -77.12535 45 ft 11 kts 334°
2026-04-26 04:08 -12.01943 -77.12572 44 ft 13 kts 334°
2026-04-26 04:08 -12.01858 -77.12614 45 ft 12 kts 334°
2026-04-26 04:09 -12.01783 -77.12650 46 ft 13 kts 334°
2026-04-26 04:09 -12.01693 -77.12695 45 ft 16 kts 334°
2026-04-26 04:09 -12.01584 -77.12748 42 ft 19 kts 334°
2026-04-26 04:09 -12.01486 -77.12797 41 ft 16 kts 334°
2026-04-26 04:10 -12.01381 -77.12849 40 ft 17 kts 334°
2026-04-26 04:10 -12.01268 -77.12904 39 ft 18 kts 335°
2026-04-26 04:10 -12.01173 -77.12939 38 ft 7 kts 338°
2026-04-26 04:10 -12.01147 -77.12965 38 ft 4 kts 271°
2026-04-26 04:11 -12.01148 -77.12968 38 ft 0 kts 258°
2026-04-26 04:11 -12.01155 -77.12983 38 ft 4 kts 242°
2026-04-26 04:11 -12.01166 -77.13005 37 ft 0 kts 244°
2026-04-26 04:12 -12.01167 -77.13008 38 ft 2 kts 244°
2026-04-26 04:13 -12.01181 -77.13037 37 ft 7 kts 244°
2026-04-26 04:13 -12.01212 -77.13098 35 ft 11 kts 233°
2026-04-26 04:13 -12.01242 -77.13092 37 ft 0 kts 154°
2026-04-26 04:15 -12.01296 -77.13065 36 ft 37 kts 154°
2026-04-26 04:15 -12.01764 -77.12835 40 ft 109 kts 154°
2026-04-26 04:15 -12.02629 -77.12408 57 ft 163 kts 154°
2026-04-26 04:16 -12.03663 -77.11898 623 ft 165 kts 155°
2026-04-26 04:16 -12.04785 -77.11744 1257 ft 167 kts 194°
2026-04-26 04:16 -12.05887 -77.12106 1928 ft 166 kts 200°
2026-04-26 04:16 -12.06978 -77.12498 2567 ft 166 kts 199°
2026-04-26 04:17 -12.08072 -77.12889 3190 ft 168 kts 199°
2026-04-26 04:17 -12.09234 -77.13298 3558 ft 187 kts 199°
2026-04-26 04:17 -12.10539 -77.13752 3857 ft 210 kts 199°
2026-04-26 04:17 -12.12011 -77.14257 4182 ft 236 kts 198°
2026-04-26 04:18 -12.13625 -77.14802 4605 ft 259 kts 198°
2026-04-26 04:18 -12.15392 -77.15395 5233 ft 272 kts 198°
2026-04-26 04:18 -12.17213 -77.16004 5885 ft 279 kts 198°
2026-04-26 04:18 -12.19062 -77.16606 6756 ft 280 kts 194°
2026-04-26 04:19 -12.21006 -77.16741 7506 ft 284 kts 173°
2026-04-26 04:19 -12.22969 -77.16447 8301 ft 286 kts 171°
2026-04-26 04:19 -12.24945 -77.16138 9091 ft 289 kts 171°
2026-04-26 04:19 -12.26943 -77.15822 9873 ft 292 kts 171°
2026-04-26 04:20 -12.28994 -77.15498 10290 ft 308 kts 171°
2026-04-26 04:20 -12.31189 -77.15153 10547 ft 328 kts 171°
2026-04-26 04:20 -12.33472 -77.14794 11108 ft 335 kts 171°
2026-04-26 04:20 -12.35791 -77.14431 11753 ft 339 kts 171°
2026-04-26 04:21 -12.38137 -77.14067 12403 ft 343 kts 171°
2026-04-26 04:21 -12.40507 -77.13702 13054 ft 346 kts 171°
2026-04-26 04:21 -12.42898 -77.13333 13699 ft 350 kts 171°
2026-04-26 04:21 -12.45317 -77.12959 14266 ft 353 kts 171°
2026-04-26 04:22 -12.47755 -77.12579 14857 ft 355 kts 171°
2026-04-26 04:22 -12.50215 -77.12197 15392 ft 359 kts 171°
2026-04-26 04:22 -12.52698 -77.11814 15946 ft 362 kts 170°
2026-04-26 04:22 -12.55169 -77.11428 16503 ft 365 kts 170°
2026-04-26 04:23 -12.57685 -77.11033 17050 ft 368 kts 170°
2026-04-26 04:23 -12.60235 -77.10634 17580 ft 372 kts 169°
2026-04-26 04:23 -12.62801 -77.10233 18146 ft 374 kts 169°
2026-04-26 04:23 -12.65388 -77.09829 18616 ft 378 kts 170°
2026-04-26 04:24 -12.68000 -77.09424 19066 ft 382 kts 170°
2026-04-26 04:24 -12.70633 -77.09015 19548 ft 384 kts 170°
2026-04-26 04:24 -12.73284 -77.08602 20010 ft 387 kts 170°
2026-04-26 04:24 -12.75960 -77.08184 20481 ft 390 kts 169°
2026-04-26 04:25 -12.78649 -77.07763 20937 ft 393 kts 169°
2026-04-26 04:25 -12.81363 -77.07338 21380 ft 396 kts 170°
2026-04-26 04:25 -12.84094 -77.06910 21826 ft 399 kts 169°
2026-04-26 04:25 -12.86845 -77.06481 22288 ft 401 kts 169°
2026-04-26 04:26 -12.89618 -77.06047 22740 ft 404 kts 169°
2026-04-26 04:26 -12.92409 -77.05608 23180 ft 408 kts 170°
2026-04-26 04:26 -12.95223 -77.05166 23593 ft 411 kts 170°
2026-04-26 04:26 -12.98055 -77.04723 23943 ft 413 kts 170°
2026-04-26 04:27 -13.00907 -77.04279 24305 ft 415 kts 170°
2026-04-26 04:27 -13.03745 -77.03709 24656 ft 416 kts 162°
2026-04-26 04:27 -13.06400 -77.02642 24995 ft 416 kts 151°
2026-04-26 04:27 -13.08837 -77.01052 25333 ft 416 kts 140°
2026-04-26 04:28 -13.10940 -76.99011 25639 ft 418 kts 130°
2026-04-26 04:28 -13.12809 -76.96715 25948 ft 421 kts 129°
2026-04-26 04:28 -13.14683 -76.94403 26314 ft 422 kts 128°
2026-04-26 04:28 -13.16566 -76.92081 26674 ft 423 kts 128°
2026-04-26 04:29 -13.18452 -76.89758 27027 ft 425 kts 128°
2026-04-26 04:29 -13.20354 -76.87419 27345 ft 428 kts 129°
2026-04-26 04:29 -13.22267 -76.85067 27632 ft 431 kts 129°
2026-04-26 04:29 -13.24192 -76.82693 27937 ft 433 kts 128°
2026-04-26 04:30 -13.26122 -76.80310 28249 ft 436 kts 128°
2026-04-26 04:30 -13.28066 -76.77912 28586 ft 437 kts 128°
2026-04-26 04:30 -13.30022 -76.75503 28885 ft 440 kts 128°
2026-04-26 04:30 -13.31987 -76.73084 29196 ft 442 kts 129°
2026-04-26 04:31 -13.33963 -76.70650 29498 ft 445 kts 128°
2026-04-26 04:31 -13.35945 -76.68206 29804 ft 447 kts 128°
2026-04-26 04:31 -13.37938 -76.65748 30096 ft 449 kts 128°
2026-04-26 04:31 -13.39939 -76.63275 30349 ft 451 kts 128°
2026-04-26 04:32 -13.41946 -76.60788 30600 ft 453 kts 128°
2026-04-26 04:32 -13.43963 -76.58289 30851 ft 455 kts 128°
2026-04-26 04:32 -13.45986 -76.55786 31104 ft 457 kts 128°
2026-04-26 04:32 -13.48021 -76.53271 31347 ft 458 kts 128°
2026-04-26 04:33 -13.50036 -76.50784 31607 ft 459 kts 128°
2026-04-26 04:33 -13.52078 -76.48263 31976 ft 458 kts 128°
2026-04-26 04:33 -13.54108 -76.45751 32343 ft 457 kts 128°
2026-04-26 04:33 -13.56139 -76.43238 32711 ft 456 kts 128°
2026-04-26 04:34 -13.58163 -76.40732 33083 ft 455 kts 128°
2026-04-26 04:34 -13.60183 -76.38228 33457 ft 454 kts 128°
2026-04-26 04:34 -13.62196 -76.35733 33841 ft 453 kts 128°
2026-04-26 04:34 -13.64207 -76.33243 34181 ft 452 kts 127°
2026-04-26 04:35 -13.66217 -76.30757 34477 ft 452 kts 127°
2026-04-26 04:35 -13.68226 -76.28268 34758 ft 452 kts 127°
2026-04-26 04:35 -13.70232 -76.25778 35028 ft 452 kts 127°
2026-04-26 04:35 -13.72235 -76.23292 35293 ft 452 kts 127°
2026-04-26 04:36 -13.74390 -76.20932 35550 ft 454 kts 136°
2026-04-26 04:36 -13.76865 -76.18897 35795 ft 456 kts 140°
2026-04-26 04:36 -13.79390 -76.16917 36041 ft 456 kts 140°
2026-04-26 04:36 -13.81911 -76.14935 36295 ft 456 kts 140°
2026-04-26 04:37 -13.84399 -76.12976 36535 ft 456 kts 140°
2026-04-26 04:37 -13.86913 -76.10993 36808 ft 455 kts 140°
2026-04-26 04:37 -13.89424 -76.09010 36967 ft 455 kts 140°
2026-04-26 04:38 -13.94413 -76.05067 37002 ft 451 kts 140°
2026-04-26 04:38 -13.99383 -76.01140 37003 ft 450 kts 140°
2026-04-26 04:39 -14.04348 -75.97214 37002 ft 450 kts 140°
2026-04-26 04:39 -14.09311 -75.93285 36999 ft 450 kts 140°
2026-04-26 04:40 -14.14271 -75.89357 37006 ft 450 kts 140°
2026-04-26 04:40 -14.19235 -75.85427 37010 ft 450 kts 140°
2026-04-26 04:41 -14.24164 -75.81525 37007 ft 450 kts 140°
2026-04-26 04:41 -14.29127 -75.77592 37018 ft 450 kts 140°
2026-04-26 04:42 -14.34087 -75.73658 37028 ft 449 kts 140°
2026-04-26 04:42 -14.39033 -75.69740 37026 ft 448 kts 140°
2026-04-26 04:43 -14.43971 -75.65821 37023 ft 447 kts 140°
2026-04-26 04:43 -14.48898 -75.61905 37030 ft 447 kts 140°
2026-04-26 04:44 -14.53829 -75.57974 36998 ft 449 kts 140°
2026-04-26 04:44 -14.58779 -75.54026 36992 ft 450 kts 140°
2026-04-26 04:45 -14.63709 -75.50102 36989 ft 451 kts 140°
2026-04-26 04:45 -14.68680 -75.46146 36994 ft 451 kts 140°
2026-04-26 04:46 -14.73654 -75.42189 36993 ft 452 kts 140°
2026-04-26 04:46 -14.78630 -75.38231 37006 ft 451 kts 140°
2026-04-26 04:47 -14.83600 -75.34271 37016 ft 451 kts 140°
2026-04-26 04:47 -14.88562 -75.30307 37017 ft 451 kts 140°
2026-04-26 04:48 -14.95997 -75.24368 37015 ft 450 kts 140°
2026-04-26 04:48 -15.00949 -75.20410 37014 ft 450 kts 140°
2026-04-26 04:49 -15.05894 -75.16445 37013 ft 450 kts 140°
2026-04-26 04:49 -15.10846 -75.12486 37012 ft 450 kts 140°
2026-04-26 04:50 -15.15762 -75.08551 37017 ft 450 kts 140°
2026-04-26 04:50 -15.20716 -75.04576 37017 ft 451 kts 140°
2026-04-26 04:51 -15.25676 -75.00604 37020 ft 451 kts 141°
2026-04-26 04:51 -15.30639 -74.96628 37016 ft 451 kts 140°
2026-04-26 04:52 -15.35600 -74.92641 37015 ft 451 kts 140°
2026-04-26 04:52 -15.40560 -74.88653 37014 ft 451 kts 140°
2026-04-26 04:53 -15.45519 -74.84664 37015 ft 451 kts 140°
2026-04-26 04:53 -15.50473 -74.80672 37005 ft 451 kts 141°
2026-04-26 04:54 -15.55439 -74.76678 37002 ft 452 kts 141°
2026-04-26 04:54 -15.60415 -74.72680 37004 ft 453 kts 141°
2026-04-26 04:55 -15.65355 -74.68695 37002 ft 453 kts 140°
2026-04-26 04:55 -15.70333 -74.64675 37007 ft 453 kts 141°
2026-04-26 04:56 -15.75316 -74.60659 37011 ft 454 kts 141°
2026-04-26 04:56 -15.80301 -74.56643 37009 ft 454 kts 140°
2026-04-26 04:57 -15.85288 -74.52610 37001 ft 455 kts 141°
2026-04-26 04:57 -15.90281 -74.48568 36994 ft 456 kts 140°
2026-04-26 04:58 -15.95288 -74.44524 36995 ft 456 kts 140°
2026-04-26 04:58 -16.00287 -74.40470 37005 ft 455 kts 141°
2026-04-26 04:59 -16.05280 -74.36422 37001 ft 455 kts 141°
2026-04-26 04:59 -16.10274 -74.32376 37018 ft 454 kts 141°
2026-04-26 05:00 -16.14414 -74.29015 37012 ft 454 kts 141°
2026-04-26 05:00 -16.19397 -74.24972 37008 ft 454 kts 141°
2026-04-26 05:01 -16.24387 -74.20931 37005 ft 455 kts 140°
2026-04-26 05:01 -16.29374 -74.16884 36999 ft 455 kts 140°
2026-04-26 05:02 -16.34367 -74.12823 36995 ft 455 kts 141°
2026-04-26 05:02 -16.39363 -74.08752 37001 ft 456 kts 141°
2026-04-26 05:03 -16.44350 -74.04689 37016 ft 455 kts 140°
2026-04-26 05:03 -16.49316 -74.00648 37007 ft 456 kts 140°
2026-04-26 05:04 -16.54316 -73.96565 37007 ft 457 kts 141°
2026-04-26 05:04 -16.59321 -73.92471 37014 ft 457 kts 140°
2026-04-26 05:05 -16.64325 -73.88382 37027 ft 457 kts 140°
2026-04-26 05:05 -16.69330 -73.84300 37018 ft 457 kts 140°
2026-04-26 05:06 -16.74337 -73.80212 37007 ft 457 kts 140°
2026-04-26 05:06 -16.79340 -73.76113 37014 ft 457 kts 141°
2026-04-26 05:07 -16.84338 -73.72019 37022 ft 456 kts 141°
2026-04-26 05:07 -16.89332 -73.67922 37012 ft 456 kts 141°
2026-04-26 05:08 -16.94291 -73.63851 37004 ft 457 kts 141°
2026-04-26 05:08 -16.99280 -73.59756 37011 ft 456 kts 141°
2026-04-26 05:09 -17.04268 -73.55661 37015 ft 455 kts 141°
2026-04-26 05:09 -17.09248 -73.51571 37012 ft 455 kts 141°
2026-04-26 05:10 -17.14230 -73.47468 37003 ft 456 kts 141°
2026-04-26 05:10 -17.19216 -73.43364 37015 ft 456 kts 141°
2026-04-26 05:11 -17.24207 -73.39262 37022 ft 456 kts 141°
2026-04-26 05:11 -17.29158 -73.35183 37018 ft 456 kts 141°
2026-04-26 05:12 -17.34142 -73.31064 37011 ft 457 kts 140°
2026-04-26 05:12 -17.39126 -73.26948 37019 ft 456 kts 141°
2026-04-26 05:13 -17.44117 -73.22836 37032 ft 456 kts 141°
2026-04-26 05:13 -17.49102 -73.18722 37026 ft 456 kts 141°
2026-04-26 05:14 -17.54077 -73.14600 37018 ft 456 kts 141°
2026-04-26 05:14 -17.59058 -73.10473 37027 ft 456 kts 141°
2026-04-26 05:15 -17.64002 -73.06379 37034 ft 456 kts 141°
2026-04-26 05:15 -17.68975 -73.02254 37030 ft 456 kts 141°
2026-04-26 05:16 -17.73951 -72.98124 37018 ft 456 kts 141°
2026-04-26 05:16 -17.78931 -72.93993 37029 ft 457 kts 141°
2026-04-26 05:17 -17.83911 -72.89851 37037 ft 456 kts 141°
2026-04-26 05:17 -17.88888 -72.85717 37035 ft 456 kts 141°
2026-04-26 05:18 -17.93863 -72.81586 37038 ft 456 kts 141°
2026-04-26 05:18 -17.98833 -72.77449 37035 ft 456 kts 141°
2026-04-26 05:19 -18.03765 -72.73339 37036 ft 456 kts 141°
2026-04-26 05:19 -18.08725 -72.69195 37030 ft 455 kts 141°
2026-04-26 05:20 -18.13682 -72.65052 37028 ft 455 kts 141°
2026-04-26 05:20 -18.18642 -72.60920 37029 ft 455 kts 141°
2026-04-26 05:21 -18.23595 -72.56784 37028 ft 454 kts 141°
2026-04-26 05:21 -18.28538 -72.52651 37028 ft 454 kts 141°
2026-04-26 05:22 -18.33481 -72.48505 37028 ft 455 kts 141°
2026-04-26 05:22 -18.38431 -72.44354 37037 ft 455 kts 141°
2026-04-26 05:23 -18.43386 -72.40210 37034 ft 455 kts 141°
2026-04-26 05:23 -18.48347 -72.36069 37026 ft 455 kts 141°
2026-04-26 05:24 -18.53267 -72.31945 37036 ft 455 kts 141°
2026-04-26 05:24 -18.58215 -72.27787 37036 ft 455 kts 141°
2026-04-26 05:25 -18.63165 -72.23620 37035 ft 455 kts 141°
2026-04-26 05:25 -18.68117 -72.19453 37037 ft 455 kts 141°
2026-04-26 05:26 -18.73074 -72.15285 37035 ft 456 kts 141°
2026-04-26 05:26 -18.78025 -72.11105 37041 ft 456 kts 141°
2026-04-26 05:27 -18.82982 -72.06931 37044 ft 456 kts 141°
2026-04-26 05:27 -18.87944 -72.02759 37046 ft 456 kts 141°
2026-04-26 05:28 -18.92899 -71.98578 37041 ft 456 kts 141°
2026-04-26 05:28 -18.97857 -71.94384 37040 ft 457 kts 141°
2026-04-26 05:29 -19.02825 -71.90187 37042 ft 457 kts 141°
2026-04-26 05:29 -19.07796 -71.85993 37052 ft 457 kts 141°
2026-04-26 05:30 -19.12758 -71.81793 37054 ft 457 kts 141°
2026-04-26 05:30 -19.17706 -71.77580 37050 ft 457 kts 141°
2026-04-26 05:31 -19.22633 -71.73401 37051 ft 457 kts 142°
2026-04-26 05:31 -19.27600 -71.69197 37045 ft 457 kts 142°
2026-04-26 05:32 -19.32567 -71.64990 37048 ft 457 kts 142°
2026-04-26 05:32 -19.37528 -71.60766 37046 ft 458 kts 142°
2026-04-26 05:33 -19.42490 -71.56538 37044 ft 458 kts 142°
2026-04-26 05:33 -19.47452 -71.52317 37055 ft 457 kts 142°
2026-04-26 05:34 -19.52412 -71.48099 37054 ft 457 kts 142°
2026-04-26 05:34 -19.57364 -71.43878 37053 ft 457 kts 142°
2026-04-26 05:35 -19.62313 -71.39647 37046 ft 457 kts 142°
2026-04-26 05:35 -19.67226 -71.35443 37047 ft 457 kts 142°
2026-04-26 05:36 -19.72180 -71.31219 37047 ft 457 kts 142°
2026-04-26 05:36 -19.77122 -71.26983 37044 ft 456 kts 142°
2026-04-26 05:37 -19.82062 -71.22747 37043 ft 456 kts 142°
2026-04-26 05:37 -19.87003 -71.18518 37036 ft 457 kts 142°
2026-04-26 05:38 -19.91950 -71.14278 37036 ft 457 kts 142°
2026-04-26 05:38 -19.96900 -71.10034 37037 ft 457 kts 142°
2026-04-26 05:39 -20.01848 -71.05780 37037 ft 457 kts 142°
2026-04-26 05:39 -20.06760 -71.01552 37039 ft 457 kts 142°
2026-04-26 05:40 -20.11709 -70.97284 37039 ft 458 kts 143°
2026-04-26 05:40 -20.16668 -70.93015 37031 ft 459 kts 143°
2026-04-26 05:41 -20.21643 -70.88743 37032 ft 460 kts 143°
2026-04-26 05:41 -20.26615 -70.84459 37035 ft 460 kts 142°
2026-04-26 05:42 -20.31578 -70.80165 37040 ft 460 kts 142°
2026-04-26 05:42 -20.36541 -70.75862 37045 ft 460 kts 142°
2026-04-26 05:43 -20.41481 -70.71596 37051 ft 460 kts 143°
2026-04-26 05:43 -20.46465 -70.67291 37048 ft 461 kts 143°
2026-04-26 05:44 -20.51447 -70.62972 37048 ft 461 kts 143°
2026-04-26 05:44 -20.56422 -70.58646 37048 ft 462 kts 143°
2026-04-26 05:45 -20.61402 -70.54312 37048 ft 462 kts 143°
2026-04-26 05:45 -20.66380 -70.49985 37054 ft 461 kts 143°
2026-04-26 05:46 -20.71364 -70.45655 37049 ft 462 kts 143°
2026-04-26 05:46 -20.76344 -70.41317 37044 ft 462 kts 143°
2026-04-26 05:47 -20.81334 -70.36978 37043 ft 462 kts 143°
2026-04-26 05:47 -20.86286 -70.32663 37045 ft 462 kts 143°
2026-04-26 05:48 -20.91268 -70.28311 37043 ft 462 kts 143°
2026-04-26 05:48 -20.96440 -70.24274 37040 ft 458 kts 155°
2026-04-26 05:49 -21.05464 -70.21814 37036 ft 443 kts 184°
2026-04-26 05:50 -21.11634 -70.21843 37035 ft 443 kts 184°
2026-04-26 05:50 -21.17806 -70.21870 37035 ft 444 kts 184°
2026-04-26 05:51 -21.23984 -70.21888 37035 ft 444 kts 184°
2026-04-26 05:51 -21.30161 -70.21907 37052 ft 444 kts 184°
2026-04-26 05:52 -21.36337 -70.21927 37055 ft 444 kts 184°
2026-04-26 05:52 -21.42512 -70.21946 37046 ft 443 kts 184°
2026-04-26 05:53 -21.48642 -70.21968 37047 ft 443 kts 184°
2026-04-26 05:53 -21.54823 -70.21995 37027 ft 445 kts 184°
2026-04-26 05:54 -21.61024 -70.22016 37018 ft 446 kts 185°
2026-04-26 05:54 -21.67238 -70.22029 37013 ft 447 kts 185°
2026-04-26 05:55 -21.73458 -70.22049 36787 ft 446 kts 185°
2026-04-26 05:55 -21.76582 -70.22059 35333 ft 455 kts 184°
2026-04-26 05:55 -21.79793 -70.22074 34086 ft 463 kts 184°
2026-04-26 05:55 -21.83002 -70.22085 33105 ft 459 kts 184°
2026-04-26 05:56 -21.86178 -70.22096 32209 ft 453 kts 184°
2026-04-26 05:56 -21.89309 -70.22148 31370 ft 445 kts 188°
2026-04-26 05:56 -21.92342 -70.22578 30573 ft 436 kts 192°
2026-04-26 05:56 -21.95322 -70.23054 29745 ft 430 kts 192°
2026-04-26 05:57 -21.98262 -70.23523 28859 ft 424 kts 192°
2026-04-26 05:57 -22.01166 -70.23983 27996 ft 419 kts 192°
2026-04-26 05:57 -22.04004 -70.24427 27510 ft 406 kts 192°
2026-04-26 05:57 -22.06784 -70.24862 27051 ft 402 kts 192°
2026-04-26 05:58 -22.09511 -70.25290 26599 ft 400 kts 192°
2026-04-26 05:58 -22.11363 -70.25582 26280 ft 398 kts 192°
2026-04-26 05:58 -22.14991 -70.26153 25659 ft 397 kts 191°
2026-04-26 05:58 -22.17721 -70.26579 25164 ft 396 kts 191°
2026-04-26 05:59 -22.20451 -70.27006 24672 ft 396 kts 192°
2026-04-26 05:59 -22.23178 -70.27432 24156 ft 396 kts 192°
2026-04-26 05:59 -22.25025 -70.27722 23823 ft 396 kts 191°
2026-04-26 05:59 -22.27736 -70.28145 23304 ft 395 kts 191°
2026-04-26 06:00 -22.30403 -70.28561 22938 ft 389 kts 191°
2026-04-26 06:00 -22.33066 -70.28979 22480 ft 385 kts 191°
2026-04-26 06:00 -22.35711 -70.29395 21987 ft 381 kts 191°
2026-04-26 06:00 -22.38313 -70.29804 21278 ft 376 kts 191°
2026-04-26 06:01 -22.40868 -70.30206 20760 ft 365 kts 191°
2026-04-26 06:01 -22.43342 -70.30600 20300 ft 354 kts 191°
2026-04-26 06:01 -22.45742 -70.30984 19859 ft 345 kts 191°
2026-04-26 06:01 -22.48116 -70.31363 19412 ft 345 kts 191°
2026-04-26 06:02 -22.50489 -70.31740 18980 ft 344 kts 191°
2026-04-26 06:02 -22.52857 -70.32115 18540 ft 344 kts 191°
2026-04-26 06:02 -22.55225 -70.32488 18069 ft 343 kts 190°
2026-04-26 06:02 -22.57585 -70.32858 17624 ft 342 kts 190°
2026-04-26 06:03 -22.59926 -70.33229 17198 ft 339 kts 190°
2026-04-26 06:03 -22.62256 -70.33601 16780 ft 337 kts 190°
2026-04-26 06:03 -22.64570 -70.33970 16373 ft 336 kts 190°
2026-04-26 06:03 -22.66876 -70.34335 15969 ft 334 kts 190°
2026-04-26 06:04 -22.69173 -70.34696 15562 ft 333 kts 190°
2026-04-26 06:04 -22.71462 -70.35057 15168 ft 332 kts 190°
2026-04-26 06:04 -22.73743 -70.35419 14773 ft 331 kts 189°
2026-04-26 06:04 -22.76014 -70.35781 14381 ft 330 kts 189°
2026-04-26 06:05 -22.78286 -70.36142 13988 ft 329 kts 189°
2026-04-26 06:05 -22.80518 -70.36496 13576 ft 328 kts 189°
2026-04-26 06:05 -22.82775 -70.36853 13168 ft 327 kts 189°
2026-04-26 06:05 -22.85013 -70.37210 12770 ft 324 kts 189°
2026-04-26 06:06 -22.87241 -70.37566 12371 ft 323 kts 189°
2026-04-26 06:06 -22.89456 -70.37910 11973 ft 321 kts 188°
2026-04-26 06:06 -22.91671 -70.38199 11574 ft 320 kts 187°
2026-04-26 06:06 -22.93876 -70.38452 11166 ft 318 kts 186°
2026-04-26 06:07 -22.96078 -70.38692 10763 ft 317 kts 186°
2026-04-26 06:07 -22.98233 -70.38928 10499 ft 304 kts 186°
2026-04-26 06:07 -23.00315 -70.39158 10008 ft 299 kts 186°
2026-04-26 06:07 -23.02360 -70.39389 9539 ft 291 kts 186°
2026-04-26 06:08 -23.04343 -70.39617 9134 ft 282 kts 186°
2026-04-26 06:08 -23.06264 -70.39842 8758 ft 273 kts 186°
2026-04-26 06:08 -23.08117 -70.40064 8377 ft 264 kts 186°
2026-04-26 06:08 -23.09913 -70.40291 8009 ft 256 kts 187°
2026-04-26 06:09 -23.11659 -70.40510 7651 ft 249 kts 186°
2026-04-26 06:09 -23.13361 -70.40717 7284 ft 244 kts 186°
2026-04-26 06:09 -23.15008 -70.40913 6932 ft 239 kts 186°
2026-04-26 06:09 -23.16643 -70.41108 6588 ft 234 kts 186°
2026-04-26 06:10 -23.18252 -70.41302 6208 ft 230 kts 186°
2026-04-26 06:10 -23.19831 -70.41494 5845 ft 226 kts 186°
2026-04-26 06:10 -23.21381 -70.41683 5492 ft 222 kts 186°
2026-04-26 06:10 -23.22907 -70.41869 5138 ft 219 kts 186°
2026-04-26 06:11 -23.24397 -70.42050 4837 ft 211 kts 186°
2026-04-26 06:11 -23.25846 -70.42228 4448 ft 207 kts 186°
2026-04-26 06:11 -23.27255 -70.42401 4105 ft 201 kts 186°
2026-04-26 06:11 -23.28628 -70.42568 3784 ft 196 kts 186°
2026-04-26 06:12 -23.29969 -70.42732 3467 ft 192 kts 186°
2026-04-26 06:12 -23.31286 -70.42893 3143 ft 189 kts 186°
2026-04-26 06:12 -23.32579 -70.43051 2817 ft 184 kts 186°
2026-04-26 06:12 -23.33801 -70.43200 2529 ft 175 kts 186°
2026-04-26 06:13 -23.34968 -70.43342 2298 ft 161 kts 186°
2026-04-26 06:13 -23.36026 -70.43471 2060 ft 145 kts 186°
2026-04-26 06:13 -23.36995 -70.43590 1855 ft 136 kts 186°
2026-04-26 06:13 -23.37924 -70.43702 1666 ft 133 kts 186°
2026-04-26 06:14 -23.38833 -70.43814 1457 ft 130 kts 186°
2026-04-26 06:14 -23.39730 -70.43924 1279 ft 129 kts 186°
2026-04-26 06:14 -23.40619 -70.44031 1091 ft 128 kts 186°
2026-04-26 06:14 -23.41506 -70.44138 897 ft 128 kts 186°
2026-04-26 06:15 -23.42393 -70.44252 695 ft 129 kts 188°
2026-04-26 06:15 -23.43279 -70.44365 480 ft 128 kts 187°
2026-04-26 06:15 -23.44106 -70.44463 392 ft 102 kts 186°
2026-04-26 06:15 -23.44643 -70.44529 370 ft 56 kts 186°
2026-04-26 06:16 -23.44933 -70.44520 364 ft 32 kts 160°
2026-04-26 06:16 -23.45068 -70.44461 363 ft 11 kts 157°
2026-04-26 06:16 -23.45098 -70.44430 362 ft 5 kts 83°
2026-04-26 06:16 -23.45070 -70.44393 363 ft 9 kts 19°
2026-04-26 06:17 -23.45000 -70.44379 365 ft 11 kts 24°
2026-04-26 06:17 -23.44987 -70.44291 364 ft 13 kts 80°
2026-04-26 06:17 -23.44926 -70.44255 369 ft 7 kts 52°
2026-04-26 06:17 -23.44918 -70.44199 366 ft 7 kts 95°
2026-04-26 06:18 -23.44921 -70.44172 366 ft 1 kts 96°
2026-04-26 06:18 -23.44921 -70.44170 366 ft 0 kts 96°